DW2113 Weather Reports


time (UTC)temp
C
wind
direction
speed
KPH
gust
KPH
rain 1hr
cm
rain 24hr
cm
rain mn
cm
humidity
%
barometer
mb
20260510044857 20 360 16.1 24.1 0.00 0.79 0.79 71
20260510044334 19 360 20.9 24.1 0.03 0.79 0.79 71
20260510043831 19 360 16.1 25.7 0.03 0.79 0.79 72
20260510043327 19 360 20.9 25.7 0.03 0.79 0.79 72
20260510042830 19 360 16.1 29.0 0.03 0.79 0.79 72
20260510042347 19 360 19.3 29.0 0.03 0.79 0.79 72
20260510041844 19 360 19.3 29.0 0.10 0.79 0.79 73
20260510041342 19 360 22.5 27.4 0.36 0.79 0.79 73
20260510040839 20 360 11.3 29.0 0.43 0.79 0.79 73
20260510040335 20 360 22.5 29.0 0.46 0.79 0.79 72
20260510035832 20 360 14.5 17.7 0.46 0.79 0.79 73
20260510035329 20 360 11.3 12.9 0.46 0.79 0.79 73
20260510034847 20 360 6.4 17.7 0.46 0.79 0.79 72
20260510034344 21 360 6.4 20.9 0.43 0.76 0.76 72
20260510033841 21 360 8.0 16.1 0.43 0.76 0.76 72
20260510033359 21 360 6.4 56.3 0.43 0.76 0.76 72
20260510032836 20 360 22.5 56.3 0.43 0.76 0.76 73
20260510032333 19 360 19.3 35.4 0.43 0.76 0.76 73
20260510031831 20 360 11.3 35.4 0.36 0.69 0.69 73
20260510031349 20 360 22.5 33.8 0.10 0.43 0.43 72
20260510030830 21 360 6.4 32.2 0.03 0.36 0.36 71
20260510030405 21 360 22.5 46.7 0.00 0.33 0.33 71
20260510025847 21 360 30.6 46.7 0.00 0.33 0.33 70
20260510025343 21 360 22.5 40.2 0.00 0.33 0.33 72
20260510024841 21 360 24.1 40.2 0.03 0.33 0.33 72
20260510024338 21 360 24.1 40.2 0.03 0.33 0.33 72
20260510023835 21 360 17.7 27.4 0.05 0.33 0.33 72
20260510023333 21 360 14.5 24.1 0.05 0.33 0.33 72
20260510022832 21 360 11.3 35.4 0.08 0.33 0.33 72
20260510022328 20 360 24.1 35.4 0.13 0.33 0.33 72
20260510021845 20 360 19.3 40.2 0.25 0.33 0.33 72
20260510021343 20 360 19.3 40.2 0.30 0.33 0.33 72
20260510020841 20 360 24.1 40.2 0.33 0.33 0.33 72
20260510020338 20 360 29.0 40.2 0.33 0.33 0.33 72
20260510015835 20 360 27.4 37.0 0.33 0.33 0.33 72
20260510015333 20 360 19.3 33.8 0.33 0.33 0.33 72
20260510014833 20 360 16.1 25.7 0.30 0.30 0.30 73
20260510014330 19 360 11.3 20.9 0.30 0.30 0.30 73
20260510013847 19 360 8.0 19.3 0.28 0.28 0.28 73
20260510013345 20 360 11.3 27.4 0.28 0.28 0.28 72
20260510012842 20 360 14.5 40.2 0.25 0.25 0.25 71
20260510012338 22 360 25.7 40.2 0.20 0.20 0.20 67
20260510011836 24 360 14.5 20.9 0.08 0.08 0.08 63
20260510011332 25 360 14.5 17.7 0.03 0.03 0.03 58
20260510010830 26 360 3.2 19.3 0.00 0.00 0.00 53
20260510010348 26 360 6.4 19.3 0.00 0.00 0.00 52
20260510005846 26 360 12.9 22.5 0.00 0.00 0.00 52
20260510005343 26 360 17.7 24.1 0.00 0.00 0.00 52
20260510004840 26 360 16.1 27.4 0.00 0.00 0.00 53
20260510004339 26 360 19.3 27.4 0.00 0.00 0.00 53
20260510003856 26 360 19.3 24.1 0.00 0.00 0.00 52
20260510003332 26 360 16.1 20.9 0.00 0.00 0.00 51
20260510002835 26 360 9.7 22.5 0.00 0.00 0.00 51
20260510002331 26 360 12.9 24.1 0.00 0.00 0.00 51
20260510001849 26 360 17.7 24.1 0.00 0.00 0.00 51
20260510001347 26 360 16.1 19.3 0.00 0.00 0.00 52
20260510000844 26 360 12.9 19.3 0.00 0.00 0.00 52
20260510000343 26 360 12.9 19.3 0.00 0.00 0.00 51
20260509235901 27 360 9.7 14.5 0.00 0.00 0.00 51
20260509235336 27 360 9.7 16.1 0.00 0.00 0.00 50
20260509234854 27 360 12.9 19.3 0.00 0.00 0.00 50
20260509234331 27 360 12.9 19.3 0.00 0.00 0.00 49
20260509233829 27 360 11.3 14.5 0.00 0.00 0.00 49
20260509233346 27 360 9.7 16.1 0.00 0.00 0.00 48
20260509232844 27 360 12.9 16.1 0.00 0.00 0.00 47
20260509232340 27 360 8.0 14.5 0.00 0.00 0.00 47
20260509231838 28 360 6.4 22.5 0.00 0.00 0.00 48
20260509231335 28 360 14.5 22.5 0.00 0.00 0.00 47
20260509230833 28 360 14.5 27.4 0.00 0.00 0.00 47
20260509230335 28 360 16.1 27.4 0.00 0.00 0.00 47
20260509225832 28 360 17.7 22.5 0.00 0.00 0.00 47
20260509225409 28 360 12.9 24.1 0.00 0.00 0.00 45
20260509224845 29 360 16.1 24.1 0.00 0.00 0.00 43
20260509224343 30 360 12.9 25.7 0.00 0.00 0.00 42
20260509223840 29 360 17.7 25.7 0.00 0.00 0.00 43
20260509223358 29 360 16.1 24.1 0.00 0.00 0.00 42
20260509222836 30 360 14.5 24.1 0.00 0.00 0.00 43
20260509222330 30 360 11.3 27.4 0.00 0.00 0.00 43
20260509221908 30 360 14.5 27.4 0.00 0.00 0.00 43
20260509221344 30 360 17.7 25.7 0.00 0.00 0.00 43
20260509220842 30 360 9.7 24.1 0.00 0.00 0.00 43
20260509220339 30 360 16.1 24.1 0.00 0.00 0.00 43
20260509215858 30 360 12.9 22.5 0.00 0.00 0.00 43
20260509215332 30 360 9.7 22.5 0.00 0.00 0.00 44
20260509214829 30 360 9.7 22.5 0.00 0.00 0.00 44
20260509214407 29 360 14.5 27.4 0.00 0.00 0.00 45
20260509213844 29 360 16.1 27.4 0.00 0.00 0.00 44
20260509213341 30 360 14.5 24.1 0.00 0.00 0.00 44
20260509212839 30 360 9.7 24.1 0.00 0.00 0.00 45
20260509212354 29 360 9.7 22.5 0.00 0.00 0.00 43
20260509211831 29 360 8.0 22.5 0.00 0.00 0.00 44
20260509211332 29 360 12.9 22.5 0.00 0.00 0.00 44
20260509210830 29 360 9.7 19.3 0.00 0.00 0.00 44
20260509210346 30 360 11.3 19.3 0.00 0.00 0.00 44
20260509205846 30 360 12.9 19.3 0.00 0.00 0.00 43
20260509205342 30 360 8.0 12.9 0.00 0.00 0.00 43
20260509204839 29 360 6.4 19.3 0.00 0.00 0.00 44
20260509204336 30 360 12.9 22.5 0.00 0.00 0.00 44
20260509203833 30 360 8.0 24.1 0.00 0.00 0.00 45
20260509203330 30 360 9.7 24.1 0.00 0.00 0.00 44
20260509202827 30 360 8.0 20.9 0.00 0.00 0.00 44
20260509202344 30 360 11.3 20.9 0.00 0.00 0.00 44
20260509201902 29 360 11.3 24.1 0.00 0.00 0.00 45
20260509201339 29 360 14.5 24.1 0.00 0.00 0.00 44
20260509200856 29 360 11.3 17.7 0.00 0.00 0.00 45
20260509200352 29 360 9.7 20.9 0.00 0.00 0.00 45
20260509195830 29 360 14.5 20.9 0.00 0.00 0.00 44
20260509195406 29 360 9.7 20.9 0.00 0.00 0.00 45
20260509194843 28 360 8.0 20.9 0.00 0.00 0.00 46
20260509194340 28 360 9.7 20.9 0.00 0.00 0.00 46
20260509193838 28 360 14.5 20.9 0.00 0.00 0.00 45
20260509193338 29 360 8.0 17.7 0.00 0.00 0.00 46
20260509192856 29 360 9.7 17.7 0.00 0.00 0.00 46
20260509192331 29 360 4.8 16.1 0.00 0.00 0.00 46
20260509191849 28 360 9.7 17.7 0.00 0.00 0.00 46
20260509191346 28 360 4.8 17.7 0.00 0.00 0.00 46
20260509190843 28 360 6.4 17.7 0.00 0.00 0.00 48
20260509190402 28 360 8.0 20.9 0.00 0.00 0.00 48
20260509185838 28 360 11.3 20.9 0.00 0.00 0.00 48
20260509185333 28 360 8.0 17.7 0.00 0.00 0.00 47
20260509184831 28 360 6.4 20.9 0.00 0.00 0.00 48
20260509184328 28 360 9.7 20.9 0.00 0.00 0.00 48
20260509183846 28 360 11.3 19.3 0.00 0.00 0.00 48
20260509183343 28 360 8.0 19.3 0.00 0.00 0.00 48
20260509182840 28 360 8.0 20.9 0.00 0.00 0.00 48
20260509182337 27 360 11.3 20.9 0.00 0.00 0.00 48
20260509181854 27 360 9.7 22.5 0.00 0.00 0.00 48
20260509181331 27 360 6.4 17.7 0.00 0.00 0.00 48
20260509180849 27 360 8.0 17.7 0.00 0.00 0.00 47
20260509180329 27 360 9.7 16.1 0.00 0.00 0.00 47
20260509175849 27 360 6.4 14.5 0.00 0.00 0.00 48
20260509175405 27 360 8.0 14.5 0.00 0.00 0.00 48
20260509174841 27 360 8.0 12.9 0.00 0.00 0.00 49
20260509174335 27 360 4.8 14.5 0.00 0.00 0.00 49
20260509173833 27 360 8.0 14.5 0.00 0.00 0.00 51
20260509173331 27 360 8.0 14.5 0.00 0.00 0.00 49
20260509172829 27 360 4.8 12.9 0.00 0.00 0.00 50
20260509172327 27 360 6.4 14.5 0.00 0.00 0.00 48
20260509171845 27 360 6.4 14.5 0.00 0.00 0.00 48
20260509171342 26 360 4.8 17.7 0.00 0.00 0.00 50
20260509170859 26 360 6.4 17.7 0.00 0.00 0.00 52
20260509170348 26 360 4.8 11.3 0.00 0.00 0.00 52
20260509165845 26 360 6.4 12.9 0.00 0.00 0.00 52
20260509165342 26 360 6.4 16.1 0.00 0.00 0.00 54
20260509164900 25 360 9.7 19.3 0.00 0.00 0.00 55
20260509164336 25 360 9.7 16.1 0.00 0.00 0.00 57
20260509163834 25 360 8.0 19.3 0.00 0.00 0.00 57
20260509163331 25 360 8.0 19.3 0.00 0.00 0.00 61
20260509162832 25 360 8.0 19.3 0.00 0.00 0.00 61
20260509162329 24 360 9.7 19.3 0.00 0.00 0.00 62
20260509161846 24 360 8.0 17.7 0.00 0.00 0.00 62
20260509161404 24 360 9.7 17.7 0.00 0.00 0.00 63
20260509160840 23 360 8.0 19.3 0.00 0.00 0.00 65
20260509160337 23 360 11.3 19.3 0.00 0.00 0.00 66
20260509155836 23 360 8.0 16.1 0.00 0.00 0.00 68
20260509155332 23 360 6.4 16.1 0.00 0.00 0.00 68
20260509154829 22 360 9.7 16.1 0.00 0.00 0.00 69
20260509154408 22 360 9.7 16.1 0.00 0.00 0.00 69
20260509153843 22 360 8.0 20.9 0.00 0.00 0.00 70
20260509153340 22 360 8.0 16.1 0.00 0.00 0.00 70
20260509152838 21 360 8.0 14.5 0.00 0.00 0.00 71
20260509152335 21 360 8.0 17.7 0.00 0.00 0.00 72
20260509151834 21 360 8.0 17.7 0.00 0.00 0.00 72
20260509151331 21 360 11.3 16.1 0.00 0.00 0.00 72
20260509150848 20 360 6.4 14.5 0.00 0.00 0.00 73
20260509150329 20 360 8.0 12.9 0.00 0.00 0.00 73
20260509145904 20 360 3.2 11.3 0.00 0.00 0.00 73
20260509145342 20 360 4.8 11.3 0.00 0.00 0.00 73
20260509144840 20 360 6.4 11.3 0.00 0.00 0.00 73
20260509144337 20 360 6.4 12.9 0.00 0.00 0.00 73
20260509143835 20 360 4.8 9.7 0.00 0.00 0.00 73
20260509143354 20 360 6.4 9.7 0.00 0.00 0.00 73
20260509142850 20 360 4.8 9.7 0.00 0.00 0.00 72
20260509142346 20 360 1.6 9.7 0.00 0.00 0.00 72
20260509141843 20 360 4.8 6.4 0.00 0.00 0.00 72
20260509141401 20 360 3.2 9.7 0.00 0.00 0.00 71
20260509140838 21 360 6.4 9.7 0.00 0.00 0.00 68
20260509140335 20 360 3.2 6.4 0.00 0.00 0.00 59
20260509135833 20 360 0.0 3.2 0.00 0.00 0.00 54
20260509135329 20 360 0.0 4.8 0.00 0.00 0.00 51
20260509134906 20 360 3.2 8.0 0.00 0.00 0.00 50
20260509134343 19 360 4.8 8.0 0.00 0.00 0.00 50
20260509133840 19 360 1.6 4.8 0.00 0.00 0.00 50
20260509133337 18 52 1.6 6.4 0.00 0.00 0.00 51
20260509132836 18 360 1.6 6.4 0.00 0.00 0.00 51
20260509132332 18 360 3.2 4.8 0.00 0.00 0.00 51
20260509131833 17 360 0.0 4.8 0.00 0.00 0.00 51
20260509131352 17 360 1.6 4.8 0.00 0.00 0.00 52
20260509130848 16 360 1.6 4.8 0.00 0.00 0.00 52
20260509130347 15 360 0.0 4.8 0.00 0.00 0.00 52
20260509125844 15 360 1.6 6.4 0.00 0.00 0.00 52
20260509125340 15 360 1.6 6.4 0.00 0.00 0.00 52
20260509124837 14 360 3.2 6.4 0.00 0.00 0.00 52
20260509124334 13 360 0.0 4.8 0.00 0.00 0.00 52
20260509123852 13 360 3.2 6.4 0.00 0.00 0.00 52
20260509123350 13 360 4.8 6.4 0.00 0.00 0.00 52
20260509122848 13 360 0.0 6.4 0.00 0.00 0.00 52
20260509122344 13 360 4.8 8.0 0.00 0.00 0.00 53
20260509121903 12 360 4.8 8.0 0.00 0.00 0.00 53
20260509121359 12 360 3.2 6.4 0.00 0.00 0.00 53
20260509120834 12 360 4.8 6.4 0.00 0.00 0.00 53
20260509120333 12 360 4.8 6.4 0.00 0.00 0.00 53
20260509115832 12 360 4.8 6.4 0.00 0.00 0.00 53
20260509115329 11 360 4.8 6.4 0.00 0.00 0.00 53
20260509114907 11 360 3.2 4.8 0.00 0.00 0.00 53
20260509114344 11 360 1.6 8.0 0.00 0.00 0.00 53
20260509113841 12 360 3.2 8.0 0.00 0.00 0.00 53
20260509113338 11 360 3.2 9.7 0.00 0.00 0.00 53
20260509112840 11 360 4.8 9.7 0.00 0.00 0.00 53
20260509112336 11 360 4.8 8.0 0.00 0.00 0.00 53
20260509111834 11 360 6.4 8.0 0.00 0.00 0.00 53
20260509111333 11 360 4.8 6.4 0.00 0.00 0.00 53
20260509110849 12 360 4.8 6.4 0.00 0.00 0.00 53
20260509110406 12 360 1.6 4.8 0.00 0.00 0.00 53
20260509105843 12 360 3.2 4.8 0.00 0.00 0.00 53
20260509105339 12 360 3.2 8.0 0.00 0.00 0.00 53
20260509104837 12 360 4.8 9.7 0.00 0.00 0.00 53
20260509104334 12 360 6.4 9.7 0.00 0.00 0.00 53
20260509103832 12 360 6.4 8.0 0.00 0.00 0.00 53
20260509103328 12 360 6.4 8.0 0.00 0.00 0.00 53
20260509102846 12 360 6.4 8.0 0.00 0.00 0.00 53
20260509102343 13 360 4.8 4.8 0.00 0.00 0.00 53
20260509101841 13 360 1.6 3.2 0.00 0.00 0.00 53
20260509101338 13 360 3.2 3.2 0.00 0.00 0.00 53
20260509100840 13 360 1.6 3.2 0.00 0.00 0.00 53
20260509100338 13 360 0.0 1.6 0.00 0.00 0.00 53
20260509095834 13 360 1.6 3.2 0.00 0.00 0.00 53
20260509095330 13 360 1.6 3.2 0.00 0.00 0.00 53
20260509094828 13 360 1.6 3.2 0.00 0.00 0.00 53
20260509094345 13 360 3.2 3.2 0.00 0.00 0.00 53
20260509093842 13 360 1.6 3.2 0.00 0.00 0.00 53
20260509093340 13 360 0.0 4.8 0.00 0.00 0.00 53
20260509092838 13 360 1.6 6.4 0.00 0.00 0.00 53
20260509092354 13 360 4.8 6.4 0.00 0.00 0.00 53
20260509091831 13 360 4.8 6.4 0.00 0.00 0.00 53
20260509091348 13 360 3.2 6.4 0.00 0.00 0.00 53
20260509090906 13 360 3.2 6.4 0.00 0.00 0.00 53
20260509090342 14 360 3.2 6.4 0.00 0.00 0.00 53
20260509085840 14 360 1.6 4.8 0.00 0.00 0.00 53
20260509085336 14 360 1.6 4.8 0.00 0.00 0.00 53
20260509084833 14 360 3.2 4.8 0.00 0.00 0.00 53
20260509084334 15 360 1.6 4.8 0.00 0.00 0.00 53
20260509083833 14 360 3.2 4.8 0.00 0.00 0.00 53
20260509083330 14 360 1.6 4.8 0.00 0.00 0.00 53
20260509082848 15 360 3.2 4.8 0.00 0.00 0.00 53
20260509082343 15 360 0.0 1.6 0.00 0.00 0.00 53
20260509081840 15 360 0.0 3.2 0.00 0.00 0.00 53
20260509081337 15 360 1.6 3.2 0.00 0.00 0.00 53
20260509080834 15 360 1.6 4.8 0.00 0.00 0.00 53
20260509080331 15 360 3.2 4.8 0.00 0.00 0.00 53
20260509075849 15 360 3.2 3.2 0.00 0.00 0.00 53
20260509075407 15 360 1.6 6.4 0.00 0.00 0.00 53
20260509074904 15 360 4.8 6.4 0.00 0.00 0.00 53
20260509074339 15 360 4.8 6.4 0.00 0.00 0.00 53
20260509073836 15 360 6.4 6.4 0.00 0.00 0.00 53
20260509073334 15 360 4.8 6.4 0.00 0.00 0.00 53
20260509072831 15 360 3.2 6.4 0.00 0.00 0.00 54
20260509072328 15 360 4.8 4.8 0.00 0.00 0.00 54
20260509071846 16 360 4.8 6.4 0.00 0.00 0.00 54
20260509071346 16 360 3.2 6.4 0.00 0.00 0.00 54
20260509070843 16 360 0.0 6.4 0.00 0.00 0.00 54
20260509070340 16 360 3.2 6.4 0.00 0.00 0.00 54
20260509065859 16 360 4.8 8.0 0.00 0.00 0.00 55
20260509065335 15 360 4.8 11.3 0.00 0.00 0.00 55
20260509064833 15 360 8.0 11.3 0.00 0.00 0.00 56
20260509064329 15 360 8.0 11.3 0.00 0.00 0.00 56
20260509063907 15 360 8.0 9.7 0.00 0.00 0.00 57
20260509063343 15 360 6.4 8.0 0.00 0.00 0.00 57
20260509062842 16 360 6.4 6.4 0.00 0.00 0.00 57
20260509062338 16 360 4.8 6.4 0.00 0.00 0.00 57
20260509061836 16 360 4.8 6.4 0.00 0.00 0.00 57
20260509061334 16 360 4.8 6.4 0.00 0.00 0.00 57
20260509060831 16 360 3.2 4.8 0.00 0.00 0.00 57
20260509060410 16 360 3.2 4.8 0.00 0.00 0.00 58
20260509055846 16 360 0.0 4.8 0.00 0.00 0.00 58
20260509055342 16 360 0.0 8.0 0.00 0.00 0.00 58
20260509054840 16 360 1.6 8.0 0.00 0.00 0.00 59
20260509054341 17 360 1.6 6.4 0.00 0.00 0.00 59
20260509053839 17 360 4.8 6.4 0.00 0.00 0.00 59
20260509053335 17 360 3.2 6.4 0.00 0.00 0.00 59
20260509052834 17 360 4.8 6.4 0.00 0.00 0.00 60
20260509052350 17 360 1.6 9.7 0.00 0.00 0.00 59
20260509051848 17 360 8.0 9.7 0.00 0.00 0.00 60
20260509051345 17 360 0.0 12.9 0.00 0.00 0.00 60
20260509050843 17 360 8.0 14.5 0.00 0.00 0.00 61
20260509050333 17 360 6.4 16.1 0.00 0.00 0.00 62
20260509045831 17 360 9.7 16.1 0.00 0.00 0.00 64
20260509045408 17 360 9.7 14.5 0.00 0.00 0.00 65